Temp
68 70 71 69 69 69 69 70 70 70 70 70 70 70 70 71 71 71 71 71 71 70 70 70 70 69 70 69 69 69 68 72
67 70 71 70 70 69 69 69 69 70 70 70 69 70 70 70 70 70 70 70 70 70 70 70 70 70 69 70 70 70 72 71
67 69 71 71 70 70 69 70 69 69 70 70 68 72 71 71 69 69 70 70 70 70 70 71 69 71 71 69 71 72 72 70
67 71 71 72 76 71 70 71 70 71 72 70 70 73 72 75 70 69 70 70 70 70 71 70 70 70 69 70 68 69 69 69
72 71 72 74 73 73 73 73 73 72 72 72 71 74 72 69 67 68 66 67 70 68 71 70 70 68 67 67 67 67 65 67
74 74 72 71 74 73 73 75 72 69 71 73 71 69 69 70 69 71 71 70 70 69 69 69 69 70 68 67 67 65 66 65
74 73 72 73 73 72 72 69 71 70 70 70 70 69 67 68 67 66 67 68 69 67 66 66 65 66 66 66 66 66 65 64
74 74 73 74 72 71 70 70 70 69 68 69 69 67 66 65 65 65 66 66 66 64 63 63 63 64 65 65 65 65 65 64
73 72 73 72 72 71 69 68 67 67 67 67 66 65 65 64 63 61 62 64 63 63 63 63 62 65 63 63 63 63 63 63
74 77 72 71 69 68 65 63 65 66 64 63 63 63 63 61 62 61 62 61 62 61 61 60 59 59 58 59 59 60 61 61
73 73 69 67 65 64 65 66 66 64 63 62 62 64 65 63 62 61 62 62 61 61 58 57 56 56 59 57 56 56 57 63
72 70 67 67 64 66 67 65 65 65 65 65 66 66 67 65 62 62 62 60 59 58 56 56 54 53 61 59 54 54 56 57
70 67 67 67 67 66 65 63 65 66 67 68 67 66 66 63 62 61 61 58 57 57 55 53 52 53 50 51 51 53 52 53
66 68 68 69 71 70 69 67 67 67 66 66 66 66 65 64 61 60 58 56 55 54 53 51 51 51 47 47 43 47 50 52
67 67 69 69 71 70 70 69 66 65 64 63 64 65 65 63 62 59 57 56 53 53 52 51 47 48 50 45 41 39 44 47
71 70 71 71 70 71 67 67 64 64 64 63 63 65 64 64 62 59 57 55 53 52 55 49 48 45 47 52 47 44 40 39
70 71 71 72 72 70 67 64 64 64 62 61 63 63 63 63 61 56 54 54 53 52 51 50 48 45 44 44 45 43 43 38
68 70 72 71 70 69 66 63 62 60 60 59 60 59 59 58 58 54 54 52 52 51 51 52 47 46 46 45 43 40 39 37
70 71 70 69 66 65 63 62 60 59 59 59 57 56 55 54 54 53 52 52 52 51 50 48 46 45 44 43 44 44 45 41
69 70 69 67 65 63 62 61 59 59 59 58 56 55 54 54 53 52 52 52 51 50 49 47 47 44 44 43 43 44 46 42
MSLP
1017.00 1017.61 1018.00 1018.65 1019.45 1019.58 1019.86 1020.23 1020.46 1020.46 1020.71 1021.00 1021.32 1021.55 1021.70 1022.13 1022.25 1022.35 1022.42 1022.45 1022.61 1022.34 1022.43 1022.34 1022.36 1022.12 1021.68 1021.59 1021.65 1021.19 1020.84 1021.07
1017.55 1017.69 1017.82 1018.79 1019.33 1019.79 1020.24 1020.57 1020.72 1020.77 1020.91 1021.27 1021.38 1021.52 1021.80 1021.88 1021.97 1022.45 1022.43 1022.87 1022.60 1022.45 1022.37 1022.23 1022.46 1022.19 1021.89 1021.69 1021.61 1021.21 1021.13 1021.15
1017.70 1017.68 1018.08 1018.66 1019.39 1019.84 1020.39 1020.80 1020.90 1020.83 1021.14 1021.15 1021.36 1021.35 1021.44 1021.83 1021.92 1022.22 1022.42 1022.64 1022.43 1022.40 1022.09 1021.94 1022.23 1022.21 1022.21 1022.19 1021.90 1021.78 1021.50 1021.42
1017.72 1017.60 1017.74 1018.41 1019.10 1020.02 1020.47 1020.57 1020.79 1020.83 1020.99 1021.11 1021.38 1021.11 1021.08 1021.32 1021.62 1021.78 1022.09 1022.09 1022.27 1022.27 1022.14 1022.06 1022.25 1022.15 1022.27 1022.31 1022.50 1022.27 1021.88 1021.73
1017.31 1017.00 1017.49 1018.40 1019.19 1019.59 1019.73 1020.08 1020.32 1020.72 1020.85 1020.96 1020.98 1020.68 1021.05 1021.23 1021.92 1021.94 1021.73 1021.83 1022.04 1022.12 1022.09 1022.19 1022.09 1022.29 1022.36 1022.53 1022.59 1022.56 1022.48 1022.28
1017.10 1017.37 1017.72 1018.49 1018.56 1018.90 1019.01 1019.52 1020.31 1020.76 1020.84 1020.72 1020.87 1020.93 1021.11 1021.10 1021.22 1021.32 1021.39 1021.76 1021.67 1021.95 1022.09 1022.11 1022.28 1022.38 1022.46 1022.53 1022.67 1022.67 1022.61 1022.43
1016.99 1017.48 1017.92 1017.99 1018.34 1018.72 1019.11 1019.93 1020.39 1020.89 1021.01 1021.28 1021.21 1021.30 1021.55 1021.33 1021.59 1021.71 1021.78 1022.09 1022.36 1022.57 1022.64 1022.68 1022.80 1022.82 1022.76 1022.76 1022.69 1022.56 1022.53 1022.39
1017.07 1017.61 1017.73 1017.90 1018.68 1019.22 1019.63 1020.24 1020.54 1020.92 1020.99 1021.28 1021.68 1021.70 1021.75 1021.97 1022.13 1022.20 1022.25 1022.13 1022.73 1023.05 1023.23 1023.27 1023.17 1022.95 1022.78 1022.81 1022.78 1022.55 1022.60 1022.56
1017.11 1017.65 1017.88 1018.52 1018.92 1019.26 1019.83 1020.51 1021.04 1021.52 1021.55 1021.51 1021.77 1021.91 1021.82 1022.04 1022.26 1022.76 1022.90 1022.68 1023.01 1023.17 1023.14 1023.20 1023.31 1023.05 1023.08 1023.03 1022.82 1022.72 1022.79 1022.72
1017.14 1017.58 1018.24 1018.52 1019.35 1019.89 1020.39 1020.99 1021.13 1021.50 1022.09 1021.76 1022.06 1022.22 1022.06 1022.46 1022.72 1022.83 1022.77 1023.04 1023.14 1023.29 1023.46 1023.80 1023.70 1023.62 1023.41 1023.36 1023.07 1023.18 1022.97 1022.68
1017.18 1017.76 1018.56 1019.00 1019.81 1020.35 1020.82 1020.51 1021.00 1021.53 1021.72 1022.05 1022.30 1022.23 1022.21 1022.50 1022.66 1023.02 1023.11 1023.12 1023.19 1023.48 1023.96 1024.08 1024.00 1023.91 1023.66 1023.40 1023.38 1023.41 1023.19 1022.71
1017.36 1018.25 1018.99 1019.54 1020.02 1019.92 1020.09 1020.44 1020.78 1021.18 1021.51 1021.84 1021.89 1022.03 1022.17 1022.27 1022.77 1023.09 1023.15 1023.39 1023.69 1023.92 1024.15 1024.06 1024.12 1024.08 1023.88 1023.72 1023.57 1023.43 1023.25 1022.98
1017.16 1018.49 1019.31 1019.60 1019.73 1019.74 1020.04 1020.30 1020.62 1020.83 1021.11 1021.48 1021.60 1022.11 1022.27 1022.63 1022.95 1023.14 1023.37 1023.88 1024.07 1024.02 1024.13 1024.14 1024.22 1024.16 1024.14 1024.15 1023.78 1023.58 1023.50 1023.18
1017.39 1018.33 1019.03 1019.20 1019.10 1019.18 1019.41 1019.78 1020.27 1020.55 1021.24 1021.59 1021.88 1022.14 1022.51 1022.88 1023.32 1023.47 1023.69 1023.96 1024.10 1024.14 1024.24 1024.36 1024.42 1024.58 1024.87 1024.60 1024.15 1023.89 1023.55 1023.53
1017.17 1018.15 1018.51 1018.76 1018.71 1018.92 1019.09 1019.52 1020.18 1020.72 1021.31 1021.75 1022.08 1022.38 1022.67 1022.96 1023.21 1023.51 1023.75 1023.93 1024.13 1024.12 1024.23 1024.42 1024.73 1024.86 1024.90 1024.99 1024.74 1024.48 1024.17 1024.14
1016.86 1017.47 1017.81 1018.18 1018.31 1018.48 1018.95 1019.53 1020.11 1020.42 1020.93 1021.67 1022.11 1022.39 1022.63 1022.90 1023.09 1023.34 1023.56 1023.79 1024.11 1024.13 1024.09 1024.44 1024.67 1024.93 1024.97 1024.90 1024.87 1024.80 1024.62 1024.32
1016.49 1016.94 1017.34 1017.57 1017.93 1018.33 1018.92 1019.83 1020.13 1020.65 1021.26 1021.70 1021.93 1022.05 1022.43 1022.71 1023.15 1023.66 1023.94 1024.02 1024.04 1024.03 1024.14 1024.18 1024.39 1024.69 1024.89 1024.89 1025.02 1024.72 1024.66 1024.89
1016.48 1016.74 1016.91 1017.55 1018.08 1018.49 1018.98 1019.64 1020.24 1020.94 1021.50 1021.90 1022.08 1022.30 1022.64 1023.16 1023.55 1023.91 1024.03 1024.12 1024.09 1024.04 1023.85 1023.85 1024.22 1024.58 1024.69 1024.69 1024.75 1024.67 1024.60 1024.68
1016.01 1016.38 1017.06 1017.75 1018.45 1019.06 1019.61 1020.08 1020.57 1021.23 1021.71 1022.02 1022.32 1022.68 1023.06 1023.56 1023.82 1024.12 1024.24 1024.09 1023.99 1023.94 1023.82 1023.94 1024.24 1024.32 1024.49 1024.63 1024.61 1024.62 1024.52 1024.57
1016.09 1016.55 1017.26 1018.09 1018.81 1019.47 1020.04 1020.57 1021.08 1021.42 1021.63 1022.02 1022.32 1022.82 1023.12 1023.46 1023.82 1024.06 1024.11 1024.10 1024.08 1023.91 1023.75 1023.80 1023.88 1024.09 1024.15 1024.29 1024.38 1024.39 1024.63 1024.69
Wind_Speed
9 8 16 17 14 14 14 14 14 15 14 13 12 11 11 10 10 9 8 7 7 8 6 5 6 7 10 8 8 11 8 8
9 13 14 11 11 14 13 12 12 13 13 11 11 11 11 10 10 7 6 4 5 5 3 4 2 4 8 9 11 9 8 8
8 9 12 12 11 11 11 12 12 12 9 10 8 5 6 8 8 7 4 2 2 2 2 6 5 7 8 10 10 6 9 5
15 12 12 11 10 9 7 9 6 6 6 6 5 4 6 7 8 10 9 8 5 5 7 5 5 5 1 8 4 6 5 5
8 10 9 11 8 7 5 5 4 5 4 3 3 3 2 3 3 3 4 7 4 5 4 1 4 2 2 3 4 5 4 4
11 9 6 10 6 5 5 5 5 3 3 2 2 1 3 1 3 2 4 3 4 4 3 5 6 6 6 5 4 4 3 3
14 9 7 6 6 6 7 6 5 4 4 6 5 4 4 5 6 5 6 6 7 5 6 6 6 6 6 5 5 4 6 3
13 10 6 6 9 9 7 5 5 4 4 4 4 2 4 4 3 4 5 6 5 5 4 4 4 4 5 6 6 5 6 6
11 11 8 12 9 8 7 5 4 2 2 5 5 4 5 5 5 5 4 5 4 3 4 4 4 5 6 5 6 6 7 7
12 10 14 12 8 5 6 5 3 5 2 5 6 4 6 6 4 3 4 2 3 3 4 5 5 5 4 5 5 6 8 6
9 9 12 12 6 4 4 6 6 5 4 4 3 5 4 4 4 5 4 3 3 4 5 4 4 5 6 5 4 5 6 8
12 8 10 7 4 4 3 3 4 4 4 4 6 4 3 4 5 3 2 4 4 4 2 3 3 4 7 7 4 4 6 7
13 12 10 7 5 4 4 4 4 4 4 6 4 5 4 6 5 5 5 4 4 4 3 4 4 4 4 5 4 5 6 5
13 11 12 9 5 4 4 5 4 4 5 4 6 4 6 6 4 3 4 3 4 4 4 3 2 4 4 5 6 5 4 7
14 10 12 10 8 5 5 5 4 4 5 4 5 5 4 2 3 3 3 3 3 4 4 5 3 4 6 2 6 4 6 4
13 14 13 10 9 7 8 6 5 3 5 5 6 5 3 2 1 1 1 2 4 3 4 2 3 3 3 5 6 4 6 8
9 10 11 8 5 8 6 8 5 5 5 5 3 3 4 1 6 7 6 4 4 4 5 3 2 2 1 3 4 3 3 3
8 12 9 7 5 5 6 8 6 6 5 2 1 3 4 7 7 6 5 5 5 5 5 1 1 3 3 4 4 3 3 2
8 9 9 7 7 7 7 7 8 6 4 1 5 3 3 5 5 3 3 4 5 6 3 2 3 4 3 4 3 3 3 2
10 11 11 10 8 8 6 7 4 3 4 4 3 1 2 3 2 4 5 6 6 6 3 3 4 4 6 4 5 2 4 4
Wind_Direction
124 159 114 104 104 102 100 102 105 103 101 104 110 107 105 103 86 76 68 62 54 50 36 23 12 351 343 348 347 329 327 60
158 145 109 108 104 106 107 111 109 109 119 132 135 141 143 131 119 89 73 51 48 43 2 346 331 311 309 334 349 343 345 83
174 121 129 123 123 114 111 120 131 128 140 155 158 181 158 148 113 116 103 155 151 181 268 295 311 252 285 310 9 359 338 54
165 155 132 136 122 146 146 149 158 161 178 166 219 177 144 139 145 158 181 193 191 229 240 275 317 11 33 20 2 349 342 11
133 108 122 125 146 157 161 181 167 126 98 75 41 73 205 139 49 217 183 216 189 210 220 44 18 18 38 39 5 353 348 354
131 122 133 142 166 175 157 108 94 81 98 82 155 56 42 53 158 80 58 34 27 32 355 27 21 358 25 7 18 13 336 319
130 139 132 145 139 83 85 82 94 110 80 36 13 35 24 26 36 46 46 19 28 13 21 21 12 357 355 1 346 333 318 321
125 140 128 125 91 109 101 96 77 57 52 55 50 29 68 64 51 34 35 58 31 31 16 359 328 310 327 346 335 337 352 340
137 139 152 115 117 106 105 91 90 63 68 78 88 31 56 58 48 53 35 39 27 350 344 351 348 338 340 340 321 350 354 326
141 151 130 122 114 110 110 137 159 88 71 75 53 63 68 77 84 58 30 315 54 18 345 4 341 335 338 311 8 354 332 319
142 138 119 129 133 103 187 120 111 112 105 105 143 108 105 144 87 63 341 6 13 28 16 350 345 334 319 332 360 339 329 331
132 125 131 133 125 162 107 96 110 138 143 145 177 115 105 81 106 111 27 13 28 30 331 328 331 323 332 319 326 353 318 298
144 139 152 171 184 172 153 147 147 135 132 88 91 103 95 41 40 39 46 24 16 339 331 354 335 334 330 330 314 303 337 348
133 156 170 199 211 193 146 140 157 126 108 117 99 78 66 100 73 34 45 8 327 5 2 332 354 352 333 320 319 322 296 348
148 177 183 203 204 162 150 116 95 117 132 143 108 94 68 65 86 63 24 8 354 351 332 343 353 344 301 314 318 311 329 329
172 184 185 202 194 171 155 156 164 147 135 113 133 136 120 19 354 271 69 20 329 321 341 21 346 304 325 341 319 319 317 322
197 170 192 155 182 155 165 123 125 103 87 113 139 158 186 254 42 43 21 1 328 297 284 256 255 310 315 302 303 289 322 334
189 195 138 145 126 102 87 103 102 110 91 51 267 62 43 54 48 25 359 338 328 322 294 204 77 287 273 282 277 261 270 292
155 147 146 133 107 95 94 92 90 99 136 196 57 24 45 49 40 2 330 319 310 302 304 347 294 277 294 277 291 308 310 305
172 160 150 137 138 135 126 125 135 179 118 69 72 67 66 58 11 1 336 330 321 311 276 248 248 281 266 261 265 275 288 259